Kakha Mchedlidze

Chief Scout - Chikhura
20 Feb 2028
Sunday
Process

Personality

Adaptability (8) Ambition (18) Controversy (7) Loyalty (17) Pressure (5) Professionalism (3) Sportsmanship (17) Temperament (7)

Profile

Coaching Style Democratic
License Continental C
Determination 3
Man Management 4
Motivating 6
Discipline 2
Job Satisfaction
100%
Fatigue
0%
Role Chief Scout
Wage 27.6K p/w
Contract 14.03.2028

Performance

Behaviour Good
Training Effectiveness
30%
Player Development
45%
Injury Prevention
45%
Tactical Implementation
30%

Recent Events

Contract negotiation started now
Attended a recruitment meeting now
Contract negotiation started now
Contract negotiation started now
Contract negotiation started now
Contract negotiation started 7d ago
Contract negotiation started 7d ago
Contract negotiation started 7d ago

Currently Monitoring

150
Player Club Status Ability Confidence Watched Last Observed Latest Vote
Martín Arenas Spartak 1918 Active 101 / 89 40% 1 07.02.2028 -
Kerfala Cissoko Rodina Active 107 / 104 40% 1 07.02.2028 -
Kyle Wootton Stockport County Active 113 / 118 40% 2 31.01.2028 -
Shilow Tracey Crawley Town Active 94 / 96 40% 1 31.01.2028 -
Lucas Carrizo Plaza Colonia Active 137 / 131 40% 2 24.01.2028 -
Augusto Berrondo Tristán Suárez Active 94 / 96 40% 2 24.01.2028 -
Maximiliano Ribero Central Norte Active 106 / 115 40% 1 02.01.2028 -
Abel Bustos Racing Active 98 / 110 40% 1 02.01.2028 -
Agustín Gallo Tristán Suárez Active 133 / 113 40% 3 31.12.2027 -
Georgy Melkadze Akhmat Grozny Active 122 / 119 40% 2 31.12.2027 -
Ezekiel Edidiong Enyimba Active 99 / 85 40% 3 29.12.2027 -
Luca Franco Arsenal Active 127 / 121 40% 5 27.12.2027 -
Nicolás Ferreyra Gimnasia y Esgrima Active 123 / 92 40% 1 27.12.2027 -
Brayan Alcócer Rubin Active 107 / 94 40% 2 24.12.2027 -
Esteban da Silva Racing Active 121 / 101 40% 4 23.12.2027 -
Yegor Kortsov Dinamo Brest Active 130 / 125 40% 1 22.12.2027 -
Jesús Amarilla Naftan Active 116 / 103 40% 1 22.12.2027 -
Saba Kvaratskhelia Tskhinvali Active 100 / 94 40% 5 17.12.2027 -
Lucas Pedraza Defensores Unidos Active 106 / 115 40% 3 15.12.2027 -
Carlos Torres Orenburg Active 123 / 116 40% 1 15.12.2027 -
Santiago Apa All Boys Active 95 / 108 40% 3 14.12.2027 -
Joseph Atule Barau Active 117 / 92 40% 1 14.12.2027 -
Juan Turletti Gimnasia y Tiro Active 100 / 106 40% 2 12.12.2027 -
Davit Gotsiridze Kolkheti Active 69 / 90 40% 1 12.12.2027 -
Renzo Reynaga Patronato Active 120 / 99 40% 1 10.12.2027 -
Irakli Kvilitaia Tskhinvali Active 109 / 105 40% 5 09.12.2027 -
Elías Ayala Madryn Negotiating 88 / 95 40% 3 09.12.2027 -
Kirill Tsepenkov Dnepr Mogilev Active 116 / 102 40% 1 08.12.2027 -
Chukwudi Okoro Nasarawa United Active 97 / 95 40% 1 08.12.2027 -
Akintunde Azeez Sapovnela Active 68 / 76 40% 1 06.12.2027 -
Angel Uñates Güemes Active 107 / 101 40% 1 06.12.2027 -
Juan David Rueda Alianza Petrolera Active 94 / 114 40% 2 03.12.2027 -
Javier Martínez Almirante Brown Active 89 / 104 40% 1 03.12.2027 -
Agustín Módica Gimnasia y Esgrima Active 135 / 134 40% 1 01.12.2027 -
Elmer Arunta Bendel Insurance Active 109 / 109 40% 1 30.11.2027 -
Diego Contreras Sapovnela Active 72 / 98 40% 3 28.11.2027 -
Cristhian Medina Dinamo Brest Active 93 / 94 40% 2 27.11.2027 -
Juan Mendoza Güemes Active 98 / 89 40% 3 26.11.2027 -
Alan Cisnero Shukura Active 83 / 88 40% 1 25.11.2027 -
Federico Álvarez Atlanta Active 112 / 87 40% 1 22.11.2027 -
Bashar Musa Lokomotivi Active 99 / 77 40% 4 20.11.2027 -
Marco Miori Alvarado Active 113 / 104 40% 3 15.11.2027 -
Iuri Tavares NK Varazdin Active 134 / 124 40% 1 14.11.2027 -
Julen Cordero Samtredia Active 86 / 94 40% 2 12.11.2027 -
Mauricio Lacerda Miramar Misiones Active 70 / 104 40% 1 12.11.2027 -
Santiago Sala Güemes Active 129 / 98 40% 5 10.11.2027 -
Juan Rocca Gimnasia y Tiro Active 130 / 95 40% 3 09.11.2027 -
Nicolás Heiz Maipú Active 83 / 120 40% 1 07.11.2027 -
Zurab Museliani Dila Active 104 / 79 40% 1 07.11.2027 -
Alan Bonansea Colón Active 89 / 89 40% 1 01.11.2027 -
Eduard Balanovich Lokomotiv Gomel Active 59 / 75 40% 1 01.11.2027 -
Abel Argañaraz Gimnasia y Esgrima Active 89 / 87 40% 2 25.10.2027 -
Sebastián Cocimano Nueva Chicago Active 121 / 101 40% 1 25.10.2027 -
Kevin Torena Shukura Active 89 / 98 40% 1 23.10.2027 -
Genaro Rossi San Martín SJ Active 106 / 122 40% 1 21.10.2027 -
Gianluca Pugliese Güemes Active 127 / 122 40% 1 10.10.2027 -
Wasiu Jimoh Samtredia Active 101 / 84 40% 1 07.10.2027 -
David Kobesov Sapovnela Active 101 / 87 40% 1 04.10.2027 -
Thomas Ortega Quilmes Active 95 / 103 40% 1 30.08.2027 -
Luca Connell Barnsley Active 119 / 114 40% 1 09.08.2027 -
Gonzalo Asis Almagro Active 94 / 98 40% 1 05.07.2027 -
Slobodan Tedić Akron Active 117 / 127 40% 4 28.06.2027 -
Nicolás Paz San Martín SJ Active 113 / 139 40% 1 14.06.2027 -
Dmitry Tsypchenko Torpedo Moscow Active 103 / 89 40% 6 31.05.2027 -
Jesse Akila Arab Contractors Active 124 / 94 40% 1 25.05.2027 -
Martin Sekulić Ural Active 114 / 124 40% 4 20.05.2027 -
Ruslan Apekov Torpedo Moscow Active 93 / 117 40% 3 17.05.2027 -
Eren Aydın Zira Active 123 / 114 40% 2 16.05.2027 -
Denis Rubanov Dinamo Stavropol Active 95 / 67 40% 1 14.05.2027 -
Vladimir Khubulov Dinamo Makhachkala Active 92 / 103 40% 5 08.05.2027 -
Ekain Orobengoa Real Sociedad Active 108 / 107 40% 1 04.05.2027 -
Ilja Gruznov Khimik Active 87 / 63 40% 1 30.04.2027 -
Migran Ageyan Ufa Active 101 / 86 40% 2 23.04.2027 -
Alexandr Saplinov Volga Active 92 / 107 40% 4 16.04.2027 -
Kamran Aliev SKA Khabarovsk Active 91 / 118 40% 3 08.04.2027 -
Vladislav Yakovlev Volga Active 69 / 82 40% 4 01.04.2027 -
Anderson Gutiérrez Chelyabinsk Active 67 / 81 40% 1 31.03.2027 -
Youssef Dalouzi Renaissance Active 62 / 72 40% 1 31.03.2027 -
Aleksej Golijanin Sokol Active 103 / 104 40% 3 25.03.2027 -
Sebastián Ybares Neftekhimik Active 72 / 97 40% 1 24.03.2027 -
Aaron Drinan Swindon Town Active 108 / 108 40% 2 23.03.2027 -
Thomas Waddingham Portsmouth Active 120 / 122 40% 1 22.03.2027 -
Danila Yezhkov Dinamo Vologda Active 87 / 65 40% 1 19.03.2027 -
Danil Karpov KAMAZ Active 73 / 103 40% 3 18.03.2027 -
Robert Murić Floriana Active 98 / 97 40% 2 16.03.2027 -
Damir Céter Hamrun Spartans Active 87 / 109 40% 2 13.03.2027 -
Franklin Sasere Birkirkara Active 84 / 96 40% 2 13.03.2027 -
Prince Ukachukwu Sumgayit Active 107 / 113 40% 1 07.03.2027 -
Denis Mironov Shinnik Active 65 / 98 40% 1 28.02.2027 -
Jacobo Alcalde SKA Khabarovsk Active 111 / 71 40% 1 26.02.2027 -
Daniil Kondrakov KDV Tomsk Active 113 / 83 40% 1 22.02.2027 -
Pedro Cejas Zabbar St. Patrick Active 77 / 78 40% 2 20.02.2027 -
Marcelo Sliema Wanderers Active 99 / 96 40% 1 15.02.2027 -
Magomed Nasibov Pobeda Active 64 / 77 40% 1 15.02.2027 -
Leon Sabua Fakel Active 77 / 116 40% 1 14.02.2027 -
Job Ochieng Real Sociedad Active 117 / 107 40% 1 12.02.2027 -
Ayom Majok Zabbar St. Patrick Active 86 / 84 40% 1 06.02.2027 -
Mikhail Gainov Dinamo Stavropol Active 89 / 71 40% 1 05.02.2027 -
Ivan Gulko KAMAZ Active 66 / 94 40% 1 04.02.2027 -
Alexandr Khokhlachev Rotor Active 115 / 109 40% 1 03.02.2027 -
Diamanka Senghor Mosta Active 78 / 104 40% 2 02.02.2027 -
Marat Bokoev Akron Active 108 / 120 40% 2 18.01.2027 -
Mamadou Maïga Nizhniy Novgorod Active 105 / 120 40% 1 18.01.2027 -
Alexandr Ivankov Torpedo Moscow Active 108 / 105 40% 1 12.01.2027 -
Gamid Agalarov Dinamo Makhachkala Active 89 / 120 40% 1 01.01.2027 -
Issa Djibrilla Zira Active 107 / 103 40% 1 18.12.2026 -
Ansor Khabibov Ryazan Active 70 / 92 40% 2 16.12.2026 -
Yeangel Montero Naxxar Lions Active 89 / 111 40% 1 16.12.2026 -
Danil Lipovoy Ufa Active 112 / 88 40% 1 14.12.2026 -
Ruslan Cherviakov Spartak Kostroma Active 96 / 114 40% 1 14.12.2026 -
Ronaldo Vásquez Sumgayit Active 131 / 117 40% 2 13.12.2026 -
Alexandr Yushin Torpedo Moscow Active 112 / 92 40% 2 13.12.2026 -
Vagner Gonçalves Nogueira Kolkheti Active 88 / 89 40% 2 09.12.2026 -
Giorgi Arabidze Torpedo Kutaisi Active 101 / 104 40% 2 09.12.2026 -
Charles M'Mombwa Zabbar St. Patrick Active 94 / 108 40% 1 16.11.2026 -
Corey O'Keeffe Barnsley Active 108 / 118 40% 1 14.11.2026 -
Brian Gambarte Sliema Wanderers Active 93 / 87 40% 1 11.11.2026 -
Sandro Altunashvili Dinamo Batumi Active 99 / 116 40% 1 11.11.2026 -
Leo Goglichidze Rodina Active 99 / 110 40% 1 08.11.2026 -
Liam Bennett Cambridge United Active 117 / 112 40% 1 07.11.2026 -
Nodar Lominadze Torpedo Kutaisi Active 122 / 105 40% 1 07.11.2026 -
Fede Varela Floriana Active 85 / 107 40% 1 05.11.2026 -
Elliot Bonds Fleetwood Town Active 99 / 100 40% 1 04.11.2026 -
Ariel Schuartzman Torpedo Kutaisi Active 111 / 110 40% 2 02.11.2026 -
Agil Huseynov Inter Active 140 / 131 40% 1 30.10.2026 -
Luka Tsulukidze Dinamo Batumi Active 110 / 132 40% 2 28.10.2026 -
Yaroslav Gladyshev Dinamo Moscow Active 145 / 108 40% 1 28.10.2026 -
Otar Parulava Dila Active 111 / 107 40% 1 26.10.2026 -
Christián Herc Gabala Active 121 / 115 40% 1 19.10.2026 -
Alex Pattison Walsall Active 101 / 114 40% 2 17.10.2026 -
Esteven Salguero Patriotas Active 108 / 112 40% 1 16.10.2026 -
Antonio Marin Olimpija Ljubljana Active 88 / 108 40% 1 16.10.2026 -
Bruno Silva Gabala Active 103 / 99 40% 1 13.10.2026 -
Artem Mylchenko Dinamo Batumi Active 88 / 99 40% 1 12.10.2026 -
Deano Van Rooyen Neftchi Active 118 / 110 40% 1 10.10.2026 -
Diego Temoche Shukura Active 96 / 101 40% 1 10.10.2026 -
Andy Polar Saburtalo Active 99 / 113 40% 1 07.10.2026 -
Gaspar Duarte Rosario Central Active 135 / 134 40% 1 05.10.2026 -
Matty Stevens AFC Wimbledon Active 99 / 114 40% 1 31.08.2026 -
Jodi Jones Notts County Active 87 / 104 40% 1 24.08.2026 -
Elliott Moore Northampton Town Active 110 / 103 40% 1 18.08.2026 -
Franco Sivetti Gimnasia y Tiro Active 98 / 110 40% 1 18.08.2026 -
Ariel Muñoz Alianza Atletico Active 111 / 114 40% 1 12.08.2026 -
Ipalibo Jack Hamrun Spartans Active 111 / 99 40% 1 12.08.2026 -
Bachana Kashia Zugdidi Active 81 / 99 37% 1 10.08.2026 -
Nicolás Linares Gimnasia y Esgrima Active 127 / 105 40% 1 04.08.2026 -
Gino Santilli Banfield Active 133 / 113 40% 1 01.08.2026 -
Cristopher Varela Deportivo La Guaira Active 124 / 107 40% 1 01.08.2026 -
David Barbona Defensa y Justicia Active 145 / 103 40% 1 01.08.2026 -
Mauro Valiente Estudiantes Active 132 / 112 40% 1 01.08.2026 -